QPF
0.01 0.01 0.02 0.07 0.07 0.09 0.10 0.11 0.11 0.09 0.06 0.06 0.06 0.06 0.07 0.07 0.08 0.08 0.06 0.08 0.07 0.06 0.06 0.05 0.04 0.03 0.02 0.02 0.01 0.01 0.01 0.02 0.02 0.02 0.03 0.04 0.04 0.04
0.00 0.00 0.01 0.04 0.08 0.10 0.11 0.10 0.10 0.11 0.09 0.07 0.07 0.07 0.09 0.08 0.08 0.08 0.07 0.08 0.08 0.07 0.06 0.05 0.05 0.04 0.03 0.02 0.01 0.02 0.02 0.02 0.02 0.02 0.01 0.01 0.01 0.01
0.00 0.00 0.00 0.02 0.05 0.09 0.11 0.11 0.11 0.11 0.12 0.11 0.10 0.10 0.12 0.11 0.10 0.08 0.08 0.08 0.07 0.07 0.06 0.05 0.04 0.04 0.04 0.03 0.02 0.01 0.01 0.01 0.01 0.01 0.01 0.01 0.00 0.01
0.00 0.00 0.00 0.01 0.03 0.06 0.08 0.10 0.10 0.11 0.12 0.15 0.15 0.14 0.13 0.14 0.14 0.12 0.09 0.07 0.07 0.06 0.05 0.04 0.03 0.03 0.03 0.02 0.01 0.01 0.01 0.00 0.00 0.00 0.00 0.00 0.00 0.00
0.00 0.00 0.00 0.00 0.01 0.04 0.07 0.08 0.10 0.11 0.12 0.13 0.16 0.18 0.17 0.17 0.17 0.15 0.11 0.08 0.06 0.06 0.05 0.03 0.02 0.02 0.02 0.02 0.01 0.01 0.00 0.00 0.00 0.00 0.00 0.00 0.00 0.00
0.00 0.00 0.00 0.00 0.01 0.02 0.05 0.07 0.10 0.11 0.12 0.15 0.16 0.19 0.21 0.21 0.22 0.18 0.12 0.09 0.06 0.05 0.04 0.03 0.02 0.02 0.01 0.01 0.01 0.01 0.00 0.00 0.00 0.00 0.00 0.00 0.00 0.00
0.01 0.01 0.00 0.00 0.01 0.02 0.03 0.04 0.08 0.12 0.12 0.16 0.18 0.19 0.22 0.23 0.24 0.23 0.17 0.12 0.08 0.05 0.04 0.03 0.02 0.01 0.01 0.01 0.01 0.00 0.00 0.00 0.00 0.00 0.00 0.00 0.00 0.00
0.01 0.01 0.01 0.01 0.01 0.02 0.03 0.04 0.05 0.08 0.11 0.14 0.17 0.18 0.19 0.23 0.25 0.31 0.28 0.19 0.10 0.05 0.04 0.03 0.02 0.01 0.01 0.00 0.00 0.00 0.00 0.00 0.00 0.00 0.00 0.00 0.00 0.00
0.01 0.01 0.01 0.02 0.02 0.03 0.03 0.04 0.04 0.04 0.06 0.09 0.13 0.16 0.16 0.21 0.28 0.33 0.34 0.28 0.16 0.08 0.05 0.04 0.03 0.02 0.01 0.01 0.01 0.00 0.00 0.00 0.00 0.00 0.00 0.00 0.01 0.01
0.01 0.01 0.01 0.01 0.03 0.03 0.04 0.04 0.03 0.03 0.03 0.05 0.08 0.12 0.15 0.18 0.26 0.33 0.38 0.37 0.27 0.19 0.11 0.06 0.04 0.02 0.01 0.01 0.01 0.00 0.00 0.00 0.00 0.01 0.01 0.01 0.01 0.01
0.00 0.00 0.01 0.01 0.02 0.02 0.03 0.04 0.04 0.03 0.03 0.03 0.05 0.08 0.13 0.18 0.23 0.31 0.39 0.41 0.33 0.23 0.15 0.09 0.04 0.03 0.02 0.01 0.01 0.01 0.01 0.01 0.01 0.01 0.01 0.01 0.01 0.01
0.01 0.00 0.00 0.00 0.01 0.01 0.02 0.02 0.03 0.03 0.03 0.03 0.04 0.05 0.08 0.14 0.20 0.23 0.29 0.33 0.31 0.24 0.13 0.08 0.06 0.04 0.02 0.01 0.01 0.00 0.00 0.01 0.01 0.01 0.01 0.01 0.01 0.00
0.01 0.01 0.01 0.01 0.01 0.01 0.01 0.02 0.02 0.03 0.04 0.04 0.04 0.04 0.05 0.08 0.14 0.18 0.22 0.27 0.29 0.26 0.15 0.08 0.06 0.05 0.02 0.01 0.01 0.00 0.00 0.00 0.00 0.01 0.01 0.01 0.01 0.00
0.01 0.02 0.02 0.02 0.02 0.01 0.01 0.01 0.02 0.04 0.05 0.04 0.04 0.03 0.03 0.05 0.08 0.13 0.17 0.22 0.22 0.25 0.22 0.14 0.08 0.05 0.04 0.02 0.01 0.01 0.00 0.00 0.00 0.00 0.00 0.01 0.01 0.01
0.01 0.01 0.02 0.02 0.02 0.02 0.02 0.02 0.03 0.04 0.05 0.04 0.03 0.03 0.02 0.03 0.05 0.08 0.13 0.19 0.21 0.20 0.24 0.21 0.13 0.09 0.06 0.03 0.02 0.01 0.00 0.00 0.00 0.00 0.00 0.00 0.00 0.00
0.02 0.02 0.02 0.03 0.03 0.03 0.02 0.02 0.03 0.04 0.04 0.04 0.03 0.03 0.02 0.03 0.03 0.06 0.09 0.14 0.19 0.19 0.19 0.21 0.18 0.13 0.09 0.05 0.03 0.02 0.01 0.00 0.00 0.00 0.00 0.00 0.00 0.00
0.03 0.03 0.02 0.03 0.03 0.03 0.03 0.02 0.02 0.04 0.05 0.04 0.04 0.04 0.03 0.02 0.02 0.04 0.05 0.09 0.14 0.17 0.17 0.19 0.21 0.18 0.14 0.10 0.06 0.03 0.02 0.01 0.00 0.00 0.00 0.00 0.00 0.00
0.04 0.04 0.03 0.03 0.03 0.03 0.04 0.03 0.02 0.03 0.04 0.05 0.04 0.04 0.04 0.02 0.02 0.03 0.05 0.06 0.09 0.13 0.16 0.16 0.19 0.21 0.18 0.15 0.10 0.06 0.04 0.02 0.01 0.00 0.00 0.00 0.00 0.00
0.03 0.04 0.02 0.03 0.03 0.02 0.03 0.03 0.03 0.03 0.03 0.04 0.04 0.04 0.03 0.02 0.02 0.02 0.04 0.06 0.07 0.10 0.15 0.17 0.14 0.15 0.15 0.12 0.08 0.06 0.05 0.03 0.02 0.01 0.00 0.00 0.00 0.00
0.02 0.03 0.03 0.03 0.02 0.02 0.02 0.02 0.02 0.02 0.03 0.03 0.03 0.03 0.02 0.02 0.01 0.01 0.03 0.05 0.06 0.08 0.12 0.15 0.15 0.11 0.09 0.09 0.08 0.06 0.04 0.04 0.02 0.01 0.01 0.00 0.00 0.00
0.02 0.02 0.02 0.03 0.03 0.02 0.02 0.02 0.02 0.01 0.02 0.02 0.02 0.02 0.02 0.01 0.01 0.01 0.02 0.04 0.05 0.06 0.08 0.10 0.12 0.13 0.11 0.11 0.11 0.09 0.06 0.04 0.04 0.03 0.02 0.01 0.00 0.00
0.02 0.03 0.02 0.02 0.02 0.02 0.02 0.02 0.03 0.02 0.01 0.01 0.01 0.01 0.01 0.01 0.01 0.00 0.01 0.03 0.04 0.04 0.06 0.08 0.12 0.16 0.14 0.11 0.10 0.09 0.08 0.06 0.05 0.05 0.04 0.02 0.01 0.00
0.02 0.02 0.02 0.02 0.02 0.02 0.02 0.02 0.02 0.02 0.01 0.01 0.01 0.01 0.01 0.01 0.00 0.00 0.01 0.02 0.04 0.05 0.06 0.09 0.11 0.13 0.15 0.11 0.09 0.09 0.10 0.10 0.07 0.05 0.03 0.03 0.02 0.02
MSLP
1012.17 1012.26 1012.32 1012.32 1012.19 1011.91 1011.46 1010.85 1010.13 1009.34 1008.58 1007.90 1007.38 1007.07 1006.98 1007.12 1007.47 1007.99 1008.64 1009.36 1010.11 1010.85 1011.55 1012.20 1012.78 1013.30 1013.77 1014.20 1014.62 1015.04 1015.47 1015.93 1016.42 1016.92 1017.44 1017.94 1018.41 1018.82
1011.67 1011.78 1011.88 1011.94 1011.90 1011.72 1011.37 1010.87 1010.23 1009.50 1008.76 1008.06 1007.47 1007.06 1006.86 1006.87 1007.10 1007.52 1008.09 1008.76 1009.50 1010.25 1010.98 1011.66 1012.28 1012.82 1013.30 1013.74 1014.14 1014.55 1014.97 1015.43 1015.92 1016.45 1016.99 1017.54 1018.05 1018.50
1011.05 1011.15 1011.27 1011.38 1011.42 1011.34 1011.12 1010.74 1010.22 1009.59 1008.91 1008.24 1007.64 1007.18 1006.89 1006.81 1006.94 1007.26 1007.76 1008.39 1009.11 1009.86 1010.61 1011.33 1011.97 1012.55 1013.05 1013.49 1013.89 1014.28 1014.69 1015.14 1015.63 1016.16 1016.73 1017.29 1017.83 1018.30
1010.35 1010.43 1010.56 1010.70 1010.80 1010.82 1010.72 1010.47 1010.09 1009.59 1009.02 1008.42 1007.85 1007.39 1007.06 1006.92 1006.98 1007.23 1007.67 1008.25 1008.95 1009.70 1010.47 1011.20 1011.88 1012.48 1013.00 1013.45 1013.85 1014.23 1014.63 1015.06 1015.53 1016.06 1016.62 1017.18 1017.72 1018.19
1009.62 1009.67 1009.79 1009.95 1010.10 1010.20 1010.21 1010.10 1009.86 1009.51 1009.06 1008.56 1008.07 1007.64 1007.33 1007.16 1007.18 1007.39 1007.78 1008.33 1009.00 1009.75 1010.52 1011.27 1011.96 1012.58 1013.11 1013.57 1013.97 1014.35 1014.73 1015.13 1015.59 1016.09 1016.63 1017.18 1017.70 1018.15
1008.93 1008.94 1009.04 1009.20 1009.38 1009.54 1009.64 1009.64 1009.54 1009.32 1009.01 1008.64 1008.25 1007.89 1007.62 1007.47 1007.48 1007.66 1008.02 1008.54 1009.19 1009.92 1010.68 1011.44 1012.14 1012.78 1013.32 1013.79 1014.19 1014.56 1014.92 1015.31 1015.74 1016.21 1016.72 1017.24 1017.73 1018.16
1008.29 1008.27 1008.34 1008.49 1008.67 1008.87 1009.03 1009.12 1009.13 1009.04 1008.86 1008.62 1008.34 1008.07 1007.87 1007.76 1007.79 1007.97 1008.31 1008.81 1009.43 1010.13 1010.88 1011.63 1012.34 1012.97 1013.53 1014.01 1014.42 1014.79 1015.16 1015.53 1015.94 1016.38 1016.86 1017.34 1017.80 1018.21
1007.73 1007.67 1007.71 1007.83 1008.00 1008.21 1008.40 1008.55 1008.65 1008.66 1008.60 1008.47 1008.31 1008.15 1008.02 1007.97 1008.03 1008.23 1008.56 1009.03 1009.62 1010.30 1011.02 1011.75 1012.45 1013.10 1013.67 1014.17 1014.60 1014.99 1015.36 1015.74 1016.14 1016.57 1017.02 1017.47 1017.91 1018.29
1007.19 1007.12 1007.12 1007.21 1007.36 1007.55 1007.75 1007.94 1008.09 1008.18 1008.22 1008.20 1008.15 1008.08 1008.04 1008.06 1008.16 1008.37 1008.70 1009.15 1009.71 1010.35 1011.04 1011.75 1012.44 1013.09 1013.68 1014.21 1014.68 1015.10 1015.51 1015.91 1016.32 1016.75 1017.19 1017.63 1018.04 1018.40
1006.64 1006.55 1006.54 1006.59 1006.71 1006.88 1007.08 1007.28 1007.46 1007.62 1007.73 1007.81 1007.85 1007.89 1007.93 1008.02 1008.16 1008.39 1008.72 1009.14 1009.66 1010.26 1010.92 1011.60 1012.28 1012.93 1013.55 1014.12 1014.64 1015.12 1015.58 1016.02 1016.47 1016.91 1017.36 1017.80 1018.20 1018.56
1006.04 1005.94 1005.91 1005.95 1006.04 1006.19 1006.38 1006.59 1006.80 1007.00 1007.18 1007.34 1007.48 1007.60 1007.72 1007.87 1008.05 1008.30 1008.62 1009.01 1009.49 1010.05 1010.66 1011.31 1011.97 1012.64 1013.29 1013.91 1014.49 1015.05 1015.58 1016.08 1016.58 1017.06 1017.53 1017.97 1018.38 1018.74
1005.36 1005.28 1005.25 1005.27 1005.35 1005.49 1005.67 1005.88 1006.12 1006.37 1006.61 1006.85 1007.06 1007.27 1007.46 1007.66 1007.88 1008.14 1008.44 1008.81 1009.24 1009.75 1010.31 1010.93 1011.58 1012.25 1012.93 1013.61 1014.26 1014.89 1015.50 1016.08 1016.64 1017.16 1017.66 1018.12 1018.54 1018.91
1004.66 1004.59 1004.56 1004.58 1004.66 1004.80 1004.98 1005.21 1005.48 1005.77 1006.07 1006.38 1006.67 1006.94 1007.20 1007.45 1007.70 1007.96 1008.24 1008.57 1008.96 1009.41 1009.93 1010.51 1011.14 1011.82 1012.53 1013.25 1013.96 1014.67 1015.35 1016.00 1016.62 1017.19 1017.72 1018.20 1018.63 1019.01
1003.98 1003.93 1003.91 1003.94 1004.03 1004.16 1004.36 1004.62 1004.91 1005.25 1005.61 1005.97 1006.33 1006.67 1006.98 1007.27 1007.53 1007.79 1008.06 1008.35 1008.69 1009.08 1009.55 1010.09 1010.70 1011.37 1012.09 1012.84 1013.61 1014.37 1015.12 1015.83 1016.49 1017.11 1017.66 1018.16 1018.60 1018.99
1003.42 1003.38 1003.37 1003.41 1003.50 1003.64 1003.86 1004.13 1004.46 1004.83 1005.24 1005.66 1006.07 1006.46 1006.81 1007.13 1007.41 1007.66 1007.91 1008.16 1008.45 1008.80 1009.21 1009.70 1010.28 1010.93 1011.65 1012.41 1013.21 1014.01 1014.79 1015.54 1016.24 1016.88 1017.46 1017.97 1018.42 1018.81
1003.04 1003.00 1003.00 1003.03 1003.12 1003.28 1003.50 1003.78 1004.13 1004.54 1004.98 1005.43 1005.88 1006.30 1006.69 1007.02 1007.31 1007.56 1007.79 1008.01 1008.26 1008.56 1008.92 1009.37 1009.90 1010.52 1011.21 1011.97 1012.76 1013.57 1014.37 1015.13 1015.85 1016.50 1017.09 1017.61 1018.06 1018.46
1002.88 1002.83 1002.82 1002.85 1002.93 1003.08 1003.29 1003.58 1003.94 1004.35 1004.80 1005.27 1005.74 1006.19 1006.59 1006.93 1007.23 1007.47 1007.69 1007.89 1008.10 1008.36 1008.68 1009.08 1009.57 1010.14 1010.80 1011.52 1012.29 1013.08 1013.86 1014.62 1015.33 1015.99 1016.58 1017.10 1017.57 1017.98
1002.92 1002.87 1002.84 1002.85 1002.91 1003.04 1003.23 1003.50 1003.85 1004.25 1004.69 1005.16 1005.63 1006.07 1006.48 1006.83 1007.12 1007.37 1007.57 1007.76 1007.96 1008.19 1008.48 1008.84 1009.28 1009.81 1010.42 1011.10 1011.82 1012.57 1013.32 1014.05 1014.74 1015.39 1015.98 1016.51 1016.99 1017.42
1003.11 1003.04 1002.99 1002.97 1003.01 1003.10 1003.27 1003.51 1003.82 1004.20 1004.61 1005.06 1005.51 1005.94 1006.33 1006.68 1006.97 1007.22 1007.44 1007.63 1007.82 1008.05 1008.32 1008.65 1009.05 1009.54 1010.09 1010.71 1011.38 1012.08 1012.78 1013.48 1014.15 1014.78 1015.37 1015.91 1016.40 1016.86
1003.34 1003.25 1003.19 1003.15 1003.16 1003.22 1003.36 1003.56 1003.83 1004.16 1004.54 1004.94 1005.36 1005.76 1006.14 1006.48 1006.78 1007.04 1007.26 1007.47 1007.68 1007.91 1008.17 1008.49 1008.87 1009.32 1009.83 1010.39 1011.00 1011.64 1012.30 1012.95 1013.59 1014.21 1014.79 1015.34 1015.86 1016.35
1003.53 1003.43 1003.36 1003.31 1003.30 1003.34 1003.44 1003.61 1003.83 1004.12 1004.45 1004.80 1005.18 1005.55 1005.90 1006.23 1006.53 1006.80 1007.05 1007.28 1007.51 1007.76 1008.04 1008.36 1008.73 1009.15 1009.62 1010.13 1010.69 1011.28 1011.88 1012.50 1013.11 1013.71 1014.29 1014.85 1015.39 1015.91
1003.60 1003.51 1003.44 1003.39 1003.38 1003.41 1003.49 1003.63 1003.82 1004.06 1004.34 1004.65 1004.97 1005.31 1005.63 1005.95 1006.25 1006.53 1006.80 1007.06 1007.32 1007.60 1007.90 1008.23 1008.60 1009.00 1009.44 1009.92 1010.43 1010.97 1011.53 1012.11 1012.69 1013.28 1013.86 1014.43 1014.99 1015.53
1003.53 1003.47 1003.42 1003.38 1003.38 1003.41 1003.49 1003.61 1003.77 1003.97 1004.21 1004.47 1004.75 1005.05 1005.34 1005.64 1005.93 1006.22 1006.50 1006.79 1007.09 1007.39 1007.72 1008.06 1008.43 1008.83 1009.25 1009.70 1010.17 1010.67 1011.20 1011.74 1012.30 1012.87 1013.45 1014.03 1014.59 1015.15
Thickness
5621 5623 5625 5629 5632 5636 5640 5644 5648 5654 5663 5673 5680 5688 5693 5698 5702 5705 5709 5712 5714 5715 5716 5717 5718 5718 5718 5718 5718 5718 5718 5717 5717 5717 5716 5716 5715 5715
5611 5613 5616 5619 5622 5627 5631 5635 5640 5646 5652 5663 5671 5679 5685 5692 5696 5700 5704 5707 5709 5711 5712 5713 5714 5715 5715 5715 5715 5716 5716 5716 5716 5716 5715 5715 5714 5714
5602 5604 5607 5610 5613 5617 5621 5626 5632 5637 5644 5653 5661 5669 5676 5682 5687 5692 5696 5699 5702 5705 5707 5708 5710 5710 5711 5712 5712 5713 5713 5714 5714 5714 5714 5714 5713 5713
5593 5594 5597 5600 5603 5607 5611 5616 5622 5628 5634 5642 5650 5659 5666 5672 5678 5682 5687 5691 5694 5697 5700 5702 5703 5705 5705 5707 5708 5709 5710 5710 5711 5711 5712 5711 5711 5711
5582 5584 5586 5588 5592 5596 5601 5606 5612 5618 5625 5632 5640 5648 5656 5663 5667 5672 5676 5681 5684 5687 5690 5693 5695 5697 5699 5701 5703 5704 5705 5706 5707 5708 5708 5709 5709 5709
5572 5573 5576 5578 5582 5586 5591 5596 5602 5608 5615 5621 5629 5638 5645 5652 5657 5661 5664 5669 5673 5677 5680 5683 5685 5688 5691 5694 5696 5698 5700 5701 5702 5704 5705 5706 5706 5707
5563 5564 5566 5569 5572 5576 5581 5587 5592 5598 5604 5612 5619 5627 5635 5642 5647 5653 5655 5658 5661 5666 5669 5672 5675 5678 5681 5685 5688 5691 5694 5696 5697 5699 5700 5702 5703 5704
5553 5554 5556 5559 5563 5567 5572 5578 5582 5588 5595 5602 5610 5617 5626 5633 5639 5643 5647 5650 5652 5656 5661 5662 5666 5670 5673 5677 5681 5684 5687 5690 5692 5694 5696 5697 5699 5700
5545 5545 5548 5552 5554 5558 5563 5568 5574 5580 5587 5594 5601 5609 5617 5625 5630 5635 5640 5645 5649 5652 5653 5654 5657 5660 5663 5667 5672 5676 5679 5683 5686 5688 5690 5692 5694 5695
5538 5538 5538 5541 5544 5547 5552 5557 5564 5570 5577 5584 5593 5601 5608 5614 5622 5628 5632 5635 5638 5641 5646 5647 5648 5651 5654 5657 5662 5667 5671 5675 5679 5681 5683 5686 5687 5689
5531 5531 5531 5532 5535 5537 5541 5546 5552 5559 5565 5573 5581 5589 5597 5604 5611 5615 5620 5624 5629 5632 5638 5641 5640 5641 5643 5647 5652 5657 5661 5666 5670 5673 5676 5678 5680 5681
5525 5524 5524 5525 5525 5527 5531 5537 5542 5549 5555 5562 5569 5577 5585 5593 5600 5607 5613 5617 5622 5625 5630 5633 5633 5634 5635 5638 5642 5647 5652 5656 5661 5664 5667 5670 5672 5674
5518 5518 5518 5516 5516 5518 5522 5528 5534 5539 5544 5551 5559 5566 5574 5581 5588 5596 5603 5610 5615 5620 5626 5628 5628 5630 5634 5633 5634 5639 5644 5648 5651 5654 5657 5661 5664 5666
5512 5512 5511 5509 5509 5511 5514 5519 5523 5528 5534 5541 5548 5556 5564 5571 5578 5585 5592 5599 5607 5614 5619 5623 5625 5628 5629 5630 5631 5632 5636 5640 5644 5647 5649 5651 5654 5656
5507 5505 5504 5503 5504 5505 5508 5512 5516 5521 5528 5533 5541 5548 5556 5562 5568 5574 5581 5588 5596 5603 5609 5615 5621 5623 5627 5629 5629 5630 5631 5632 5636 5639 5641 5644 5646 5648
5502 5501 5499 5499 5500 5502 5504 5507 5512 5517 5523 5530 5535 5540 5545 5551 5558 5565 5573 5579 5586 5593 5600 5606 5612 5616 5619 5623 5626 5627 5629 5630 5630 5632 5634 5636 5638 5640
5498 5497 5497 5496 5497 5499 5501 5503 5507 5511 5517 5523 5528 5533 5539 5544 5550 5557 5565 5571 5578 5585 5591 5596 5600 5606 5612 5617 5618 5621 5623 5625 5626 5627 5629 5630 5631 5633
5495 5496 5496 5496 5496 5498 5500 5502 5504 5509 5514 5519 5524 5529 5534 5539 5544 5550 5557 5564 5572 5578 5584 5588 5592 5596 5600 5604 5612 5616 5617 5618 5619 5621 5624 5626 5626 5626
5496 5497 5496 5496 5497 5497 5499 5502 5505 5508 5511 5515 5520 5524 5529 5534 5539 5545 5550 5557 5565 5572 5578 5582 5587 5593 5598 5601 5603 5609 5613 5613 5613 5614 5617 5621 5623 5622
5498 5498 5497 5497 5497 5498 5499 5501 5504 5506 5508 5512 5516 5520 5524 5529 5534 5540 5546 5553 5559 5565 5571 5576 5582 5589 5596 5599 5599 5601 5605 5609 5610 5610 5610 5611 5612 5613
5501 5500 5499 5499 5499 5500 5501 5502 5504 5506 5508 5511 5514 5518 5522 5526 5531 5536 5542 5546 5554 5560 5566 5571 5577 5581 5586 5589 5591 5594 5597 5601 5606 5607 5606 5606 5607 5608
5503 5502 5502 5501 5501 5502 5502 5503 5504 5506 5509 5511 5514 5517 5521 5525 5529 5534 5538 5544 5550 5556 5561 5565 5568 5573 5579 5584 5589 5590 5590 5591 5594 5597 5601 5605 5608 5608
5506 5505 5504 5504 5504 5504 5504 5505 5506 5509 5510 5512 5515 5517 5520 5523 5527 5532 5536 5541 5546 5551 5555 5558 5563 5567 5573 5578 5582 5583 5584 5585 5587 5589 5591 5594 5599 5603